Tracking 31027 objects as of 19-Jul-2025
HD Live streaming from Space Station
objects crossing your sky now

COSMOS 660

Track COSMOS 660 now!
10-day predictions
COSMOS 660 is classified as:


NORAD ID: 7337
Int'l Code: 1974-044A
Perigee: 373.8 km
Apogee: 1,010.2 km
Inclination: 82.9 °
Period: 98.5 minutes
Semi major axis: 7062 km
RCS: 2.9855 m2 (large)
Launch date: June 18, 1974
Source: Commonwealth of Independent States (former USSR) (CIS)
Launch site: PLESETSK MISSILE AND SPACE COMPLEX (PKMTR)
Your satellite tracking list
IRIDIUM 33 DEB
Track 1 satellite(s)




NASA's NSSDC Master Catalog

Two Line Element Set (TLE):
1 07337U 74044A   25199.91698096  .00009223  00000-0  39019-3 0  9994
2 07337  82.9376 196.7717 0450538   7.0120 353.7101 14.62587792592816
Source of the keplerian elements: AFSPC